Location: Clarion
(42.7316°N, 93.7330°W)
Time: 21:56:22
(UTC+00:00)

USA 290 - Pass Details

Date: 22 April 2026
Orbit: 396 x 415 km, 73.6° (Epoch: 30 October)

Event Time Altitude Azimuth Distance (km) Brightness Sun altitude
Exits shadow 09:20:16 35° 330° (NNW) 664 3.3 -20.4°
Drops below altitude 10° 09:22:35 10° 7° (N) 1,445 5.6 -20.1°
Sets 09:24:41 0° 14° (NNE) 2,306 6.9 -19.8°
